Regional Weather Roundup
Issued by NWS

Home | Current Version | Previous Version | Text Only | Print | Product List | Glossary On
Versions: 1 2 3 4 5 6 7 8 9 10 11 12 13 14 15 16 17 18 19 20 21 22 23 24 25 26 27 28 29 30 31 32 33 34 35 36 37 38 39 40 41 42 43 44 45 46 47 48 49 50
330
ASUS44 KBMX 071710
RWRAL

ALABAMA REGIONAL WEATHER ROUNDUP
NATIONAL WEATHER SERVICE BIRMINGHAM AL
1100 AM CST SUN FEB 07 2016

NOTE: "FAIR" INDICATES FEW OR NO CLOUDS BELOW 12,000 FEET
WITH NO SIGNIFICANT WEATHER AND/OR OBSTRUCTIONS TO VISIBILITY.

THE REMARK "TC" DENOTES TEMPERATURE IN DEGREES CELSIUS.

ALZ001>011-014-016>018-020-071800-
NORTH ALABAMA

CITY           SKY/WX    TMP DP  RH WIND       PRES   REMARKS
MUSCLE SHOALS  SUNNY     51  24  34 W5        30.21F
HUNTSVILLE     MOSUNNY   48  30  49 S3        30.21F
DECATUR        SUNNY     48  26  42 VRB3      30.21F
HALEYVILLE     FAIR      50  20  30 VRB5      30.21F
GADSDEN        SUNNY     52  25  35 NW9       30.22F
$$

ALZ012-013-022-023-030>036-040>044-071800-
WEST CENTRAL ALABAMA

CITY           SKY/WX    TMP DP  RH WIND       PRES   REMARKS
TUSCALOOSA     SUNNY     52  26  36 S5        30.25F
$$

ALZ015-024>027-033>036-040>044-071800-
CENTRAL ALABAMA

CITY           SKY/WX    TMP DP  RH WIND       PRES   REMARKS
BIRMINGHAM     MOSUNNY   51  23  33 N8        30.24F
MONTGOMERY     SUNNY     56  23  27 NW12G17   30.23F
SHELBY CO ARPT SUNNY     52  21  29 VRB7      30.23F
MAXWELL AFB    SUNNY     55  23  29 N9        30.22F
GREENVILLE     NOT AVBL
$$

ALZ019-021-028-029-037-038-045>048-071800-
EAST CENTRAL ALABAMA

CITY           SKY/WX    TMP DP  RH WIND       PRES   REMARKS
ANNISTON       SUNNY     51  20  29 N13G20    30.21F
ALEXANDER CITY SUNNY     50  28  41 N10       30.20F
AUBURN         SUNNY     52  24  33 N12G20    30.19F
$$

ALZ051>064-071800-
SOUTHWEST ALABAMA

CITY           SKY/WX    TMP DP  RH WIND       PRES   REMARKS
MOBILE         SUNNY     55  20  25 N9        30.27F
BROOKLEY FIELD SUNNY     55  22  27 N10       30.29F
EVERGREEN      SUNNY     55  22  27 N10G18    30.25F
$$

ALZ049-050-065>069-071800-
SOUTHEAST ALABAMA

CITY           SKY/WX    TMP DP  RH WIND       PRES   REMARKS
DOTHAN         SUNNY     52  26  36 N13       30.22F
OZARK          SUNNY     53  25  34 N10G18    30.19F
TROY           SUNNY     55  25  31 N16       30.21F
EUFAULA        FAIR      55  25  31 VRB6      30.17F
$$




USA.gov is the U.S. government's official web portal to all federal, state and local government web resources and services.